Weather History for New Bedford, MA

Change the Weather History Date:

Saturday, December 7, 2013

  Actual Average Record
Temperature  
Mean Temperature 34 °F -  
Max Temperature 41 °F 47 °F 70 °F (1998)
Min Temperature 28 °F 31 °F 8 °F (2002)
Degree Days  
Heating Degree Days 30    
Moisture  
Dew Point 30 °F    
Average Humidity 81    
Maximum Humidity 93    
Minimum Humidity 60    
Precipitation  
Precipitation 0.20 in - - ()
Sea Level Pressure  
Sea Level Pressure 30.21 in    
Wind  
Wind Speed 5 mph (NNW)    
Max Wind Speed 12 mph    
Max Gust Speed 21 mph    
Visibility 9 miles    
Events Rain    
Averages and records for this station are not official NWS values.
T = Trace of Precipitation, MM = Missing Value Source: NWS Daily Summary

Daily Weather History Graph

Daily Weather History Graph

Search for Another Location

Airport:

Trip Planner

Search our weather history database for the weather conditions in past years. The results will help you decide how hot, cold, wet, or windy it might be!

Date:

Astronomy

Dec. 07, 2013 Rise Set
Actual Time 6:57 AM EST 4:13 PM EST
Civil Twilight 6:26 AM EST 4:44 PM EST
Nautical Twilight 5:51 AM EST 5:19 PM EST
Astronomical Twilight 5:17 AM EST 5:53 PM EST
Moon 10:37 AM EST (12/7) 9:54 PM EST (12/7)
Length of Visible Light 10h 18m
Length of Day
9h 15m
Waxing Crescent, 29% of the Moon is Illuminated
Dec 7
Waxing Crescent
Dec 9
First Quarter
Dec 17
Full
Dec 25
Last Quarter
Jan 1
New

Hourly Weather History & Observations

Time (EST) Temp. Windchill Dew Point Humidity Pressure Visibility Wind Dir Wind Speed Gust Speed Precip Events Conditions
12:53 AM 37.0 °F 31.6 °F 35.1 °F 93% 30.07 in 7.0 mi North 6.9 mph - 0.05 in Rain Light Rain
1:53 AM 36.0 °F 30.3 °F 34.0 °F 93% 30.08 in 9.0 mi North 6.9 mph - 0.12 in Rain Light Rain
2:53 AM 36.0 °F 31.1 °F 34.0 °F 93% 30.08 in 10.0 mi North 5.8 mph - 0.02 in   Overcast
3:40 AM 35.6 °F 30.7 °F 33.8 °F 93% 30.12 in 7.0 mi NW 5.8 mph - N/A   Overcast
3:53 AM 35.1 °F 28.6 °F 33.1 °F 92% 30.12 in 3.0 mi North 8.1 mph - 0.01 in Rain Light Rain
4:14 AM 35.6 °F 30.7 °F 33.8 °F 93% 30.12 in 4.0 mi North 5.8 mph - 0.00 in   Overcast
4:24 AM 35.6 °F 29.2 °F 33.8 °F 93% 30.13 in 5.0 mi North 8.1 mph - 0.00 in   Overcast
4:27 AM 35.6 °F 30.7 °F 33.8 °F 93% 30.12 in 5.0 mi Variable 5.8 mph - 0.00 in Rain Light Rain
4:53 AM 35.1 °F 31.0 °F 33.1 °F 92% 30.12 in 7.0 mi North 4.6 mph - 0.00 in   Overcast
5:06 AM 35.6 °F 31.7 °F 33.8 °F 93% 30.12 in 8.0 mi North 4.6 mph - N/A   Overcast
5:40 AM 35.6 °F 29.2 °F 33.8 °F 93% 30.13 in 10.0 mi North 8.1 mph - N/A   Overcast
5:53 AM 35.1 °F 31.0 °F 33.1 °F 92% 30.14 in 10.0 mi Variable 4.6 mph - N/A   Overcast
6:14 AM 35.6 °F 29.9 °F 32.0 °F 87% 30.15 in 10.0 mi NNW 6.9 mph - N/A   Overcast
6:53 AM 35.1 °F - 33.1 °F 92% 30.17 in 10.0 mi Calm Calm - N/A   Overcast
7:06 AM 35.6 °F 30.7 °F 33.8 °F 93% 30.16 in 10.0 mi North 5.8 mph - N/A   Overcast
7:53 AM 35.1 °F - 33.1 °F 92% 30.18 in 10.0 mi Calm Calm - N/A   Overcast
8:41 AM 35.6 °F - 33.8 °F 93% 30.20 in 10.0 mi Calm Calm - N/A   Overcast
8:53 AM 36.0 °F 33.3 °F 34.0 °F 93% 30.20 in 10.0 mi NNW 3.5 mph - N/A   Overcast
9:53 AM 37.0 °F 32.4 °F 33.1 °F 86% 30.22 in 10.0 mi NW 5.8 mph - N/A   Overcast
10:53 AM 39.0 °F 33.4 °F 30.0 °F 70% 30.21 in 10.0 mi NNW 8.1 mph 20.7 mph N/A   Mostly Cloudy
11:53 AM 39.9 °F 32.9 °F 27.0 °F 60% 30.21 in 10.0 mi NW 11.5 mph 17.3 mph N/A   Clear
12:53 PM 41.0 °F 37.1 °F 28.0 °F 60% 30.21 in 10.0 mi Variable 5.8 mph - N/A   Scattered Clouds
1:53 PM 39.0 °F 34.0 °F 27.0 °F 62% 30.22 in 10.0 mi Variable 6.9 mph 17.3 mph N/A   Overcast
2:53 PM 39.0 °F 32.8 °F 26.1 °F 60% 30.24 in 10.0 mi NW 9.2 mph - N/A   Mostly Cloudy
3:53 PM 37.0 °F 34.5 °F 26.1 °F 65% 30.27 in 10.0 mi Variable 3.5 mph - N/A   Clear
4:53 PM 34.0 °F 29.8 °F 24.1 °F 67% 30.30 in 10.0 mi WNW 4.6 mph - N/A   Clear
5:53 PM 33.1 °F 27.7 °F 21.9 °F 64% 30.33 in 10.0 mi WNW 5.8 mph - N/A   Clear
6:53 PM 32.0 °F - 21.9 °F 66% 30.36 in 10.0 mi Calm Calm - N/A   Clear
7:53 PM 30.9 °F - 21.9 °F 69% 30.38 in 10.0 mi Calm Calm - N/A   Clear
8:53 PM 30.0 °F - 21.9 °F 72% 30.40 in 10.0 mi Calm Calm - N/A   Partly Cloudy
9:53 PM 30.0 °F - 21.9 °F 72% 30.42 in 10.0 mi Calm Calm - N/A   Clear
10:53 PM 28.0 °F - 21.9 °F 78% 30.44 in 10.0 mi Calm Calm - N/A   Clear
11:53 PM 28.9 °F - 21.9 °F 75% 30.45 in 10.0 mi Calm Calm - N/A   Clear